OEECO EDAZ-EDHL

Flight info

Callsign OEECO
Flight time N/A
Altitude 26000
Route KLF DCT SOGMA M748 BUMIL/N0274F240 M748 RARUP RARUP1R
Aircraft PC12/L-SDFGRWY/S

Departure

Time 2026-04-23 16:57
Airport Schönhagen Airfield (EDAZ)

Arrival

Time N/A
Airport Lübeck Blankensee Airport (EDHL)
Time Latitude Longitude Altitude Speed Heading
2026-04-23 16:39 52.20418 13.15115 138 ft 0 kts 164°
2026-04-23 16:54 52.20402 13.15194 138 ft 17 kts 69°
2026-04-23 16:54 52.20440 13.15434 139 ft 21 kts 74°
2026-04-23 16:55 52.20472 13.15643 139 ft 19 kts 77°
2026-04-23 16:55 52.20507 13.15881 140 ft 19 kts 93°
2026-04-23 16:55 52.20468 13.15978 140 ft 17 kts 75°
2026-04-23 16:55 52.20506 13.16219 140 ft 24 kts 76°
2026-04-23 16:56 52.20542 13.16460 140 ft 18 kts 75°
2026-04-23 16:56 52.20573 13.16656 141 ft 23 kts 75°
2026-04-23 16:56 52.20616 13.16931 141 ft 21 kts 78°
2026-04-23 16:56 52.20573 13.17073 141 ft 13 kts 156°
2026-04-23 16:57 52.20521 13.16825 139 ft 48 kts 256°
2026-04-23 16:57 52.20390 13.16000 169 ft 94 kts 256°
2026-04-23 16:57 52.20199 13.14990 633 ft 92 kts 254°
2026-04-23 16:57 52.20164 13.13930 1014 ft 104 kts 294°
2026-04-23 16:58 52.20780 13.13194 1352 ft 125 kts 334°
2026-04-23 16:58 52.21528 13.12339 1764 ft 138 kts 315°
2026-04-23 16:58 52.22197 13.11071 2142 ft 158 kts 302°
2026-04-23 16:58 52.22748 13.09432 2476 ft 170 kts 299°
2026-04-23 16:59 52.23321 13.07704 2904 ft 175 kts 301°
2026-04-23 16:59 52.23928 13.05950 3415 ft 180 kts 303°
2026-04-23 16:59 52.24558 13.04150 3913 ft 185 kts 304°
2026-04-23 16:59 52.25205 13.02305 4424 ft 189 kts 304°
2026-04-23 17:00 52.25640 13.01066 4767 ft 191 kts 304°
2026-04-23 17:00 52.26526 12.98532 5452 ft 193 kts 304°
2026-04-23 17:00 52.27194 12.96623 5957 ft 194 kts 304°
2026-04-23 17:00 52.27866 12.94704 6466 ft 195 kts 303°
2026-04-23 17:01 52.28551 12.92746 6857 ft 201 kts 303°
2026-04-23 17:01 52.29252 12.90739 7225 ft 205 kts 303°
2026-04-23 17:01 52.29964 12.88697 7598 ft 208 kts 304°
2026-04-23 17:01 52.30685 12.86627 7977 ft 210 kts 304°
2026-04-23 17:02 52.31165 12.85248 8227 ft 211 kts 304°
2026-04-23 17:02 52.32131 12.82475 8731 ft 213 kts 304°
2026-04-23 17:02 52.32867 12.80357 9118 ft 215 kts 305°
2026-04-23 17:02 52.33609 12.78224 9513 ft 216 kts 305°
2026-04-23 17:03 52.34356 12.76072 9909 ft 218 kts 305°
2026-04-23 17:03 52.35107 12.73907 10281 ft 220 kts 306°
2026-04-23 17:03 52.35862 12.71725 10637 ft 221 kts 305°
2026-04-23 17:03 52.36623 12.69527 10997 ft 222 kts 305°
2026-04-23 17:04 52.37384 12.67327 11360 ft 223 kts 305°
2026-04-23 17:04 52.38148 12.65116 11721 ft 223 kts 305°
2026-04-23 17:04 52.38914 12.62899 12090 ft 224 kts 305°
2026-04-23 17:04 52.39672 12.60700 12462 ft 225 kts 304°
2026-04-23 17:05 52.40442 12.58467 12849 ft 225 kts 304°
2026-04-23 17:05 52.41212 12.56232 13234 ft 226 kts 304°
2026-04-23 17:05 52.41984 12.53988 13623 ft 226 kts 304°
2026-04-23 17:05 52.42755 12.51744 14012 ft 226 kts 304°
2026-04-23 17:06 52.43527 12.49498 14347 ft 226 kts 304°
2026-04-23 17:06 52.44299 12.47247 14699 ft 226 kts 304°
2026-04-23 17:06 52.45072 12.44993 15055 ft 227 kts 304°
2026-04-23 17:06 52.45848 12.42728 15416 ft 228 kts 304°
2026-04-23 17:07 52.46623 12.40461 15784 ft 228 kts 304°
2026-04-23 17:07 52.47402 12.38185 16160 ft 229 kts 304°
2026-04-23 17:07 52.48184 12.35895 16529 ft 230 kts 304°
2026-04-23 17:07 52.48969 12.33595 16906 ft 231 kts 304°
2026-04-23 17:08 52.49756 12.31288 17290 ft 232 kts 304°
2026-04-23 17:08 52.50547 12.28966 17678 ft 233 kts 304°
2026-04-23 17:08 52.51329 12.26666 18065 ft 234 kts 304°
2026-04-23 17:08 52.52125 12.24327 18458 ft 235 kts 305°
2026-04-23 17:09 52.52923 12.21976 18810 ft 236 kts 304°
2026-04-23 17:09 52.53723 12.19620 19159 ft 237 kts 305°
2026-04-23 17:09 52.54524 12.17255 19513 ft 237 kts 305°
2026-04-23 17:09 52.55329 12.14877 19870 ft 238 kts 305°
2026-04-23 17:10 52.56138 12.12488 20232 ft 239 kts 305°
2026-04-23 17:10 52.56949 12.10090 20602 ft 240 kts 305°
2026-04-23 17:10 52.57760 12.07688 20967 ft 241 kts 305°
2026-04-23 17:10 52.58574 12.05275 21327 ft 242 kts 304°
2026-04-23 17:11 52.59391 12.02851 21703 ft 243 kts 304°
2026-04-23 17:11 52.60212 12.00415 22089 ft 243 kts 304°
2026-04-23 17:11 52.61042 11.97950 22353 ft 249 kts 304°
2026-04-23 17:11 52.61876 11.95469 22615 ft 252 kts 304°
2026-04-23 17:12 52.62728 11.92931 22882 ft 254 kts 304°
2026-04-23 17:12 52.63726 11.90565 23146 ft 250 kts 316°
2026-04-23 17:12 52.65009 11.88665 23418 ft 247 kts 327°
2026-04-23 17:12 52.66384 11.86950 23695 ft 248 kts 326°
2026-04-23 17:13 52.67752 11.85212 23939 ft 248 kts 326°
2026-04-23 17:13 52.69120 11.83477 24167 ft 248 kts 326°
2026-04-23 17:13 52.70492 11.81741 24397 ft 249 kts 326°
2026-04-23 17:13 52.71869 11.79999 24630 ft 249 kts 326°
2026-04-23 17:14 52.73243 11.78257 24866 ft 250 kts 326°
2026-04-23 17:14 52.74603 11.76532 25098 ft 250 kts 326°
2026-04-23 17:14 52.75986 11.74775 25336 ft 251 kts 326°
2026-04-23 17:14 52.77370 11.73017 25576 ft 251 kts 326°
2026-04-23 17:15 52.78759 11.71251 25816 ft 252 kts 326°
2026-04-23 17:15 52.80153 11.69477 26061 ft 253 kts 326°
2026-04-23 17:15 52.81556 11.67690 26207 ft 258 kts 326°
2026-04-23 17:15 52.83005 11.65847 26203 ft 266 kts 326°
2026-04-23 17:16 52.83984 11.64598 26208 ft 270 kts 326°
2026-04-23 17:16 52.85480 11.62686 26214 ft 273 kts 326°
2026-04-23 17:16 52.86984 11.60761 26217 ft 274 kts 325°
2026-04-23 17:16 52.88493 11.58832 26215 ft 274 kts 325°
2026-04-23 17:17 52.90007 11.56894 26218 ft 275 kts 325°
2026-04-23 17:17 52.91522 11.54952 26219 ft 275 kts 325°
2026-04-23 17:17 52.93037 11.53008 26219 ft 275 kts 325°
2026-04-23 17:17 52.94551 11.51065 26219 ft 275 kts 325°
2026-04-23 17:18 52.97562 11.47198 26220 ft 275 kts 325°
2026-04-23 17:18 52.99074 11.45254 26219 ft 274 kts 325°
2026-04-23 17:18 53.00576 11.43319 26212 ft 273 kts 325°
2026-04-23 17:19 53.02077 11.41385 26213 ft 272 kts 325°
2026-04-23 17:19 53.03069 11.40106 26213 ft 272 kts 325°